| time (UTC) | temp F | wind direction | speed MPH | gust MPH | rain 1hr in | rain 24hr in | rain mn in | humidity % | barometer mb |
| 20260505124719 | 59 | 140 | 0.0 | 0.0 | 0.00 | 0.34 | 0.34 | 99 | 1053.7 |
| 20260505124216 | 59 | 113 | 2.0 | 2.0 | 0.00 | 0.34 | 0.34 | 99 | 1053.2 |
| 20260505123711 | 59 | 42 | 0.0 | 1.0 | 0.00 | 0.34 | 0.34 | 99 | 1053.5 |
| 20260505123208 | 59 | 329 | 2.0 | 2.0 | 0.00 | 0.34 | 0.34 | 99 | 1053.4 |
| 20260505122704 | 59 | 348 | 1.0 | 2.0 | 0.00 | 0.34 | 0.34 | 99 | 1053.2 |
| 20260505122201 | 59 | 19 | 1.0 | 1.0 | 0.00 | 0.34 | 0.34 | 99 | 1053.1 |
| 20260505121653 | 59 | 1 | 3.0 | 3.0 | 0.00 | 0.34 | 0.34 | 99 | 1053.0 |
| 20260505121149 | 59 | 346 | 3.0 | 5.0 | 0.00 | 0.34 | 0.34 | 99 | 1053.3 |
| 20260505120645 | 59 | 8 | 3.0 | 3.0 | 0.00 | 0.34 | 0.34 | 99 | 1053.4 |
| 20260505120141 | 59 | 276 | 5.0 | 7.0 | 0.00 | 0.34 | 0.34 | 99 | 1053.1 |
| 20260505115635 | 59 | 14 | 3.0 | 3.0 | 0.00 | 0.34 | 0.34 | 99 | 1053.0 |
| 20260505115134 | 59 | 359 | 4.0 | 5.0 | 0.00 | 0.34 | 0.34 | 99 | 1053.1 |
| 20260505114630 | 59 | 9 | 3.0 | 5.0 | 0.00 | 0.34 | 0.34 | 99 | 1052.9 |
| 20260505114127 | 59 | 2 | 3.0 | 5.0 | 0.00 | 0.34 | 0.34 | 99 | 1052.9 |
| 20260505113623 | 59 | 1 | 3.0 | 3.0 | 0.00 | 0.34 | 0.34 | 99 | 1052.5 |
| 20260505113120 | 58 | 145 | 1.0 | 1.0 | 0.00 | 0.34 | 0.34 | 99 | 1052.3 |
| 20260505112616 | 59 | 194 | 1.0 | 1.0 | 0.00 | 0.34 | 0.34 | 99 | 1052.3 |
| 20260505112114 | 58 | 195 | 0.0 | 0.0 | 0.00 | 0.34 | 0.34 | 99 | 1052.2 |
| 20260505111608 | 58 | 195 | 1.0 | 1.0 | 0.00 | 0.34 | 0.34 | 99 | 1052.3 |
| 20260505111104 | 58 | 150 | 0.0 | 0.0 | 0.00 | 0.34 | 0.34 | 99 | 1052.4 |
| 20260505110601 | 59 | 180 | 3.0 | 3.0 | 0.00 | 0.34 | 0.34 | 99 | 1052.3 |
| 20260505102033 | 60 | 170 | 2.0 | 2.0 | 0.00 | 0.32 | 0.32 | 99 | 1052.9 |
| 20260505101532 | 60 | 147 | 3.0 | 3.0 | 0.00 | 0.32 | 0.32 | 99 | 1052.8 |
| 20260505101027 | 60 | 137 | 1.0 | 2.0 | 0.00 | 0.32 | 0.32 | 99 | 1052.5 |
| 20260505100525 | 60 | 131 | 3.0 | 3.0 | 0.05 | 0.32 | 0.32 | 99 | 1052.7 |
| 20260505100022 | 60 | 157 | 2.0 | 2.0 | 0.05 | 0.32 | 0.32 | 99 | 1052.2 |
| 20260505095517 | 59 | 144 | 3.0 | 3.0 | 0.00 | 0.31 | 0.31 | 99 | 1052.5 |
| 20260505095014 | 59 | 162 | 3.0 | 3.0 | 0.00 | 0.31 | 0.31 | 99 | 1052.7 |
| 20260505094510 | 59 | 120 | 0.0 | 0.0 | 0.00 | 0.31 | 0.31 | 99 | 1052.6 |
| 20260505094007 | 59 | 159 | 1.0 | 1.0 | 0.00 | 0.31 | 0.31 | 99 | 1053.0 |
| 20260505093503 | 59 | 94 | 0.0 | 0.0 | 0.00 | 0.31 | 0.31 | 99 | 1052.8 |
| 20260505093001 | 59 | 352 | 0.0 | 0.0 | 0.07 | 0.31 | 0.31 | 99 | 1053.3 |
| 20260505092458 | 59 | 0 | 0.0 | 1.0 | 0.07 | 0.31 | 0.31 | 99 | 1053.1 |
| 20260505091955 | 59 | 292 | 0.0 | 1.0 | 0.07 | 0.31 | 0.31 | 99 | 1053.5 |
| 20260505091453 | 59 | 51 | 0.0 | 0.0 | 0.00 | 0.30 | 0.30 | 99 | 1052.7 |
| 20260505090951 | 59 | 331 | 3.0 | 3.0 | 0.05 | 0.30 | 0.30 | 99 | 1054.1 |
| 20260505090449 | 59 | 324 | 2.0 | 2.0 | 0.17 | 0.30 | 0.30 | 99 | 1053.9 |
| 20260505085946 | 60 | 314 | 2.0 | 2.0 | 0.19 | 0.29 | 0.29 | 99 | 1053.7 |
| 20260505085444 | 59 | 36 | 0.0 | 1.0 | 0.19 | 0.27 | 0.27 | 99 | 1052.7 |
| 20260505084942 | 59 | 41 | 0.0 | 0.0 | 0.12 | 0.26 | 0.26 | 99 | 1053.3 |
| 20260505084440 | 59 | 347 | 2.0 | 2.0 | 0.17 | 0.25 | 0.25 | 98 | 1053.5 |
| 20260505083937 | 59 | 312 | 2.0 | 2.0 | 0.19 | 0.24 | 0.24 | 98 | 1053.8 |
| 20260505083434 | 59 | 343 | 1.0 | 1.0 | 0.19 | 0.22 | 0.22 | 98 | 1053.5 |
| 20260505082931 | 60 | 351 | 3.0 | 3.0 | 0.17 | 0.21 | 0.21 | 98 | 1053.5 |
| 20260505082426 | 60 | 331 | 2.0 | 2.0 | 0.19 | 0.20 | 0.20 | 98 | 1053.5 |
| 20260505081924 | 60 | 355 | 1.0 | 1.0 | 0.19 | 0.18 | 0.18 | 98 | 1053.5 |
| 20260505081421 | 60 | 356 | 0.0 | 1.0 | 0.17 | 0.17 | 0.17 | 98 | 1053.5 |
| 20260505080917 | 59 | 347 | 3.0 | 5.0 | 0.19 | 0.16 | 0.16 | 97 | 1053.8 |
| 20260505080413 | 59 | 308 | 3.0 | 3.0 | 0.19 | 0.14 | 0.14 | 97 | 1053.8 |
| 20260505075908 | 60 | 359 | 5.0 | 6.0 | 0.19 | 0.13 | 0.13 | 97 | 1053.9 |
| 20260505075406 | 60 | 319 | 2.0 | 3.0 | 0.12 | 0.11 | 0.11 | 96 | 1054.0 |
| 20260505074903 | 60 | 340 | 2.0 | 2.0 | 0.12 | 0.11 | 0.11 | 96 | 1053.7 |
| 20260505074400 | 60 | 344 | 5.0 | 7.0 | 0.12 | 0.10 | 0.10 | 95 | 1054.0 |
| 20260505073857 | 60 | 311 | 3.0 | 3.0 | 0.12 | 0.09 | 0.09 | 95 | 1053.8 |
| 20260505073355 | 60 | 327 | 3.0 | 3.0 | 0.12 | 0.08 | 0.08 | 94 | 1053.5 |
| 20260505072852 | 60 | 5 | 3.0 | 5.0 | 0.19 | 0.07 | 0.07 | 93 | 1053.4 |
| 20260505072348 | 61 | 6 | 1.0 | 1.0 | 0.24 | 0.06 | 0.06 | 89 | 1053.3 |
| 20260505071844 | 62 | 247 | 3.0 | 3.0 | 0.24 | 0.04 | 0.04 | 84 | 1053.7 |
| 20260505071341 | 63 | 303 | 2.0 | 2.0 | 0.12 | 0.02 | 0.02 | 82 | 1053.5 |
| 20260505070839 | 64 | 330 | 2.0 | 2.0 | 0.07 | 0.01 | 0.01 | 81 | 1053.4 |
| 20260505070335 | 64 | 158 | 0.0 | 1.0 | 0.00 | 0.00 | 0.00 | 77 | 1053.4 |
| 20260505065830 | 64 | 148 | 1.0 | 1.0 | 0.00 | 0.00 | 0.00 | 76 | 1053.2 |
| 20260505065327 | 64 | 170 | 3.0 | 3.0 | 0.00 | 0.00 | 0.00 | 76 | 1053.4 |
| 20260505064825 | 64 | 171 | 4.0 | 5.0 | 0.00 | 0.00 | 0.00 | 76 | 1053.2 |
| 20260505064321 | 64 | 152 | 2.0 | 2.0 | 0.00 | 0.00 | 0.00 | 75 | 1053.3 |
| 20260505063820 | 65 | 142 | 3.0 | 3.0 | 0.00 | 0.00 | 0.00 | 75 | 1053.2 |
| 20260505063315 | 65 | 154 | 4.0 | 5.0 | 0.00 | 0.00 | 0.00 | 75 | 1053.4 |
| 20260505062812 | 65 | 157 | 3.0 | 3.0 | 0.00 | 0.00 | 0.00 | 74 | 1053.3 |
| 20260505062310 | 65 | 156 | 3.0 | 3.0 | 0.00 | 0.00 | 0.00 | 75 | 1053.7 |
| 20260505061806 | 65 | 162 | 3.0 | 3.0 | 0.00 | 0.00 | 0.00 | 74 | 1053.7 |
| 20260505061305 | 65 | 143 | 3.0 | 5.0 | 0.00 | 0.00 | 0.00 | 74 | 1053.7 |
| 20260505060802 | 65 | 160 | 3.0 | 5.0 | 0.00 | 0.00 | 0.00 | 74 | 1053.4 |
| 20260505060259 | 65 | 157 | 3.0 | 3.0 | 0.00 | 0.00 | 0.00 | 74 | 1054.0 |
| 20260505055754 | 65 | 158 | 3.0 | 3.0 | 0.00 | 0.00 | 0.00 | 73 | 1054.0 |
| 20260505055250 | 65 | 159 | 3.0 | 3.0 | 0.00 | 0.00 | 0.00 | 73 | 1053.8 |
| 20260505054748 | 65 | 173 | 3.0 | 3.0 | 0.00 | 0.00 | 0.00 | 72 | 1053.9 |
| 20260505054245 | 65 | 149 | 3.0 | 3.0 | 0.00 | 0.00 | 0.00 | 73 | 1054.0 |
| 20260505053744 | 65 | 139 | 3.0 | 3.0 | 0.00 | 0.00 | 0.00 | 73 | 1053.8 |
| 20260505053240 | 65 | 146 | 3.0 | 3.0 | 0.00 | 0.00 | 0.00 | 74 | 1053.4 |
| 20260505052737 | 65 | 141 | 3.0 | 3.0 | 0.00 | 0.00 | 0.00 | 74 | 1053.5 |
| 20260505052234 | 65 | 142 | 3.0 | 3.0 | 0.00 | 0.00 | 0.00 | 74 | 1053.5 |
| 20260505051731 | 65 | 138 | 3.0 | 3.0 | 0.00 | 0.00 | 0.00 | 73 | 1053.4 |
| 20260505051229 | 65 | 133 | 3.0 | 3.0 | 0.00 | 0.00 | 0.00 | 74 | 1053.7 |
| 20260505050727 | 65 | 140 | 3.0 | 3.0 | 0.00 | 0.00 | 0.00 | 74 | 1053.8 |
| 20260505050225 | 65 | 133 | 3.0 | 3.0 | 0.00 | 0.00 | 0.00 | 73 | 1053.9 |
| 20260505041654 | 66 | 156 | 3.0 | 3.0 | 0.00 | 0.00 | 0.00 | 71 | 1054.2 |
| 20260505041152 | 66 | 170 | 3.0 | 3.0 | 0.00 | 0.00 | 0.00 | 70 | 1054.2 |
| 20260505040649 | 67 | 157 | 3.0 | 3.0 | 0.00 | 0.00 | 0.00 | 70 | 1054.3 |
| 20260505040146 | 67 | 142 | 3.0 | 3.0 | 0.00 | 0.00 | 0.00 | 69 | 1054.4 |
| 20260505035642 | 67 | 153 | 4.0 | 5.0 | 0.00 | 0.00 | 0.00 | 69 | 1054.2 |
| 20260505035138 | 67 | 183 | 4.0 | 6.0 | 0.00 | 0.00 | 0.00 | 69 | 1054.5 |
| 20260505034635 | 67 | 162 | 3.0 | 5.0 | 0.00 | 0.00 | 0.00 | 69 | 1054.5 |
| 20260505034132 | 67 | 150 | 4.0 | 5.0 | 0.00 | 0.00 | 0.00 | 68 | 1054.4 |
| 20260505033628 | 67 | 174 | 4.0 | 5.0 | 0.00 | 0.00 | 0.00 | 68 | 1054.5 |
| 20260505033127 | 67 | 185 | 6.0 | 7.0 | 0.00 | 0.00 | 0.00 | 68 | 1054.4 |
| 20260505032625 | 68 | 166 | 5.0 | 7.0 | 0.00 | 0.00 | 0.00 | 67 | 1054.6 |
| 20260505032121 | 68 | 154 | 5.0 | 5.0 | 0.00 | 0.00 | 0.00 | 67 | 1054.9 |
| 20260505031618 | 68 | 148 | 3.0 | 3.0 | 0.00 | 0.00 | 0.00 | 67 | 1054.9 |
| 20260505031114 | 68 | 153 | 3.0 | 3.0 | 0.00 | 0.00 | 0.00 | 67 | 1054.8 |
| 20260505030611 | 68 | 148 | 3.0 | 3.0 | 0.00 | 0.00 | 0.00 | 67 | 1054.6 |
| 20260505030106 | 68 | 169 | 4.0 | 5.0 | 0.00 | 0.00 | 0.00 | 67 | 1054.7 |
| 20260505025602 | 68 | 157 | 5.0 | 6.0 | 0.00 | 0.00 | 0.00 | 66 | 1054.6 |
| 20260505025057 | 68 | 173 | 3.0 | 5.0 | 0.00 | 0.00 | 0.00 | 66 | 1054.7 |
| 20260505024553 | 69 | 152 | 3.0 | 3.0 | 0.00 | 0.00 | 0.00 | 64 | 1054.6 |
| 20260505024051 | 69 | 143 | 3.0 | 3.0 | 0.00 | 0.00 | 0.00 | 63 | 1054.6 |
| 20260505023548 | 69 | 145 | 3.0 | 3.0 | 0.00 | 0.00 | 0.00 | 62 | 1054.6 |
| 20260505023045 | 69 | 170 | 3.0 | 3.0 | 0.00 | 0.00 | 0.00 | 62 | 1054.4 |
| 20260505022543 | 70 | 164 | 2.0 | 2.0 | 0.00 | 0.00 | 0.00 | 62 | 1054.3 |
| 20260505022040 | 70 | 175 | 3.0 | 3.0 | 0.00 | 0.00 | 0.00 | 61 | 1054.1 |
| 20260505021536 | 70 | 189 | 3.0 | 3.0 | 0.00 | 0.00 | 0.00 | 61 | 1054.3 |
| 20260505021033 | 70 | 164 | 3.0 | 5.0 | 0.00 | 0.00 | 0.00 | 61 | 1054.2 |
| 20260505020532 | 70 | 157 | 5.0 | 6.0 | 0.00 | 0.00 | 0.00 | 61 | 1054.2 |
| 20260505020030 | 70 | 193 | 3.0 | 3.0 | 0.00 | 0.00 | 0.00 | 61 | 1053.9 |
| 20260505015527 | 70 | 177 | 3.0 | 3.0 | 0.00 | 0.00 | 0.00 | 61 | 1053.9 |
| 20260505015024 | 71 | 176 | 4.0 | 5.0 | 0.00 | 0.00 | 0.00 | 61 | 1053.7 |
| 20260505014520 | 71 | 181 | 3.0 | 3.0 | 0.00 | 0.00 | 0.00 | 60 | 1053.8 |
| 20260505014018 | 71 | 174 | 6.0 | 7.0 | 0.00 | 0.00 | 0.00 | 61 | 1053.5 |
| 20260505013515 | 71 | 182 | 3.0 | 3.0 | 0.00 | 0.00 | 0.00 | 61 | 1053.5 |
| 20260505013012 | 71 | 147 | 5.0 | 6.0 | 0.00 | 0.00 | 0.00 | 60 | 1053.5 |
| 20260505012510 | 71 | 146 | 4.0 | 5.0 | 0.00 | 0.00 | 0.00 | 61 | 1053.5 |
| 20260505012007 | 71 | 169 | 4.0 | 5.0 | 0.00 | 0.00 | 0.00 | 61 | 1053.3 |
| 20260505011502 | 71 | 189 | 3.0 | 3.0 | 0.00 | 0.00 | 0.00 | 61 | 1053.3 |
| 20260505011000 | 71 | 190 | 3.0 | 3.0 | 0.00 | 0.00 | 0.00 | 61 | 1053.3 |
| 20260505010455 | 72 | 173 | 2.0 | 2.0 | 0.00 | 0.00 | 0.00 | 61 | 1053.2 |
| 20260505005951 | 72 | 174 | 3.0 | 3.0 | 0.00 | 0.00 | 0.00 | 60 | 1053.1 |
| 20260505005448 | 72 | 178 | 2.0 | 2.0 | 0.00 | 0.00 | 0.00 | 61 | 1053.1 |
| 20260505004946 | 72 | 177 | 2.0 | 2.0 | 0.00 | 0.00 | 0.00 | 60 | 1053.0 |
| 20260505004443 | 72 | 163 | 3.0 | 5.0 | 0.00 | 0.00 | 0.00 | 60 | 1052.8 |
| 20260505003940 | 72 | 174 | 2.0 | 3.0 | 0.00 | 0.00 | 0.00 | 60 | 1052.7 |
| 20260505003437 | 73 | 163 | 4.0 | 5.0 | 0.00 | 0.00 | 0.00 | 59 | 1052.6 |
| 20260505002933 | 73 | 166 | 4.0 | 5.0 | 0.00 | 0.00 | 0.00 | 59 | 1053.0 |
| 20260505002429 | 73 | 148 | 3.0 | 5.0 | 0.00 | 0.00 | 0.00 | 58 | 1052.6 |
| 20260505001928 | 73 | 175 | 4.0 | 5.0 | 0.00 | 0.00 | 0.00 | 58 | 1052.7 |
| 20260505001425 | 73 | 190 | 5.0 | 7.0 | 0.00 | 0.00 | 0.00 | 57 | 1052.7 |
| 20260505000922 | 73 | 196 | 3.0 | 3.0 | 0.00 | 0.00 | 0.00 | 58 | 1052.8 |
| 20260505000420 | 73 | 156 | 4.0 | 5.0 | 0.00 | 0.00 | 0.00 | 57 | 1052.6 |
| 20260504235916 | 74 | 176 | 5.0 | 6.0 | 0.00 | 0.00 | 0.00 | 57 | 1052.8 |
| 20260504235414 | 74 | 160 | 5.0 | 6.0 | 0.00 | 0.00 | 0.00 | 57 | 1052.7 |
| 20260504234909 | 74 | 191 | 5.0 | 7.0 | 0.00 | 0.00 | 0.00 | 56 | 1052.6 |
| 20260504234407 | 74 | 191 | 6.0 | 7.0 | 0.00 | 0.00 | 0.00 | 56 | 1052.7 |
| 20260504233904 | 74 | 161 | 7.0 | 8.0 | 0.00 | 0.00 | 0.00 | 55 | 1052.6 |
| 20260504233359 | 75 | 146 | 5.0 | 7.0 | 0.00 | 0.00 | 0.00 | 54 | 1052.7 |
| 20260504232856 | 75 | 159 | 7.0 | 8.0 | 0.00 | 0.00 | 0.00 | 53 | 1052.8 |
| 20260504232353 | 75 | 148 | 7.0 | 8.0 | 0.00 | 0.00 | 0.00 | 53 | 1052.7 |
| 20260504231850 | 75 | 140 | 7.0 | 9.0 | 0.00 | 0.00 | 0.00 | 52 | 1052.9 |
| 20260504231347 | 76 | 148 | 4.0 | 5.0 | 0.00 | 0.00 | 0.00 | 52 | 1052.9 |
| 20260504230843 | 76 | 144 | 7.0 | 9.0 | 0.00 | 0.00 | 0.00 | 50 | 1052.9 |
| 20260504230341 | 76 | 192 | 7.0 | 9.0 | 0.00 | 0.00 | 0.00 | 50 | 1053.0 |
| 20260504225839 | 76 | 157 | 5.0 | 6.0 | 0.00 | 0.00 | 0.00 | 50 | 1052.9 |
| 20260504225335 | 76 | 149 | 7.0 | 9.0 | 0.00 | 0.00 | 0.00 | 49 | 1052.9 |
| 20260504224833 | 77 | 173 | 5.0 | 5.0 | 0.00 | 0.00 | 0.00 | 48 | 1053.0 |
| 20260504224330 | 77 | 191 | 4.0 | 5.0 | 0.00 | 0.00 | 0.00 | 48 | 1052.9 |
| 20260504223826 | 78 | 158 | 6.0 | 9.0 | 0.00 | 0.00 | 0.00 | 48 | 1053.0 |
| 20260504223322 | 77 | 218 | 5.0 | 6.0 | 0.00 | 0.00 | 0.00 | 47 | 1052.9 |
| 20260504222818 | 77 | 135 | 7.0 | 11.0 | 0.00 | 0.00 | 0.00 | 46 | 1053.1 |
| 20260504222315 | 78 | 169 | 4.0 | 5.0 | 0.00 | 0.00 | 0.00 | 46 | 1053.2 |
| 20260504221814 | 78 | 182 | 3.0 | 3.0 | 0.00 | 0.00 | 0.00 | 46 | 1053.1 |
| 20260504221310 | 78 | 219 | 5.0 | 6.0 | 0.00 | 0.00 | 0.00 | 47 | 1053.0 |
| 20260504220807 | 78 | 166 | 4.0 | 5.0 | 0.00 | 0.00 | 0.00 | 46 | 1053.1 |
| 20260504220304 | 78 | 230 | 3.0 | 5.0 | 0.00 | 0.00 | 0.00 | 45 | 1053.0 |
| 20260504215801 | 78 | 216 | 10.0 | 11.0 | 0.00 | 0.00 | 0.00 | 44 | 1053.3 |
| 20260504215252 | 78 | 172 | 7.0 | 10.0 | 0.00 | 0.00 | 0.00 | 44 | 1053.3 |
| 20260504214748 | 78 | 25 | 3.0 | 3.0 | 0.00 | 0.00 | 0.00 | 44 | 1053.3 |
| 20260504214244 | 78 | 215 | 3.0 | 6.0 | 0.00 | 0.00 | 0.00 | 44 | 1053.3 |
| 20260504213741 | 78 | 290 | 11.0 | 17.0 | 0.00 | 0.00 | 0.00 | 44 | 1053.3 |
| 20260504213238 | 79 | 245 | 8.0 | 9.0 | 0.00 | 0.00 | 0.00 | 44 | 1053.3 |
| 20260504212735 | 78 | 161 | 5.0 | 7.0 | 0.00 | 0.00 | 0.00 | 44 | 1053.4 |
| 20260504212231 | 78 | 186 | 8.0 | 10.0 | 0.00 | 0.00 | 0.00 | 45 | 1053.3 |
| 20260504211729 | 78 | 177 | 7.0 | 8.0 | 0.00 | 0.00 | 0.00 | 45 | 1053.3 |
| 20260504211225 | 78 | 235 | 4.0 | 5.0 | 0.00 | 0.00 | 0.00 | 44 | 1053.4 |
| 20260504210723 | 79 | 175 | 11.0 | 16.0 | 0.00 | 0.00 | 0.00 | 43 | 1053.4 |
| 20260504210220 | 79 | 246 | 4.0 | 6.0 | 0.00 | 0.00 | 0.00 | 46 | 1053.7 |
| 20260504205717 | 79 | 164 | 3.0 | 5.0 | 0.00 | 0.00 | 0.00 | 45 | 1053.8 |
| 20260504205214 | 78 | 128 | 5.0 | 7.0 | 0.00 | 0.00 | 0.00 | 46 | 1053.8 |
| 20260504204712 | 78 | 133 | 9.0 | 10.0 | 0.00 | 0.00 | 0.00 | 47 | 1053.8 |
| 20260504204211 | 79 | 136 | 6.0 | 10.0 | 0.00 | 0.00 | 0.00 | 46 | 1053.9 |
| 20260504203709 | 78 | 227 | 3.0 | 3.0 | 0.00 | 0.00 | 0.00 | 47 | 1054.1 |
| 20260504203207 | 78 | 197 | 8.0 | 10.0 | 0.00 | 0.00 | 0.00 | 47 | 1054.2 |
| 20260504202706 | 78 | 186 | 5.0 | 6.0 | 0.00 | 0.00 | 0.00 | 47 | 1054.1 |
| 20260504202204 | 78 | 211 | 6.0 | 7.0 | 0.00 | 0.00 | 0.00 | 47 | 1054.3 |
| 20260504201701 | 78 | 177 | 8.0 | 10.0 | 0.00 | 0.00 | 0.00 | 46 | 1054.1 |
| 20260504201158 | 79 | 164 | 5.0 | 7.0 | 0.00 | 0.00 | 0.00 | 47 | 1054.2 |
| 20260504200656 | 78 | 162 | 9.0 | 11.0 | 0.00 | 0.00 | 0.00 | 46 | 1054.2 |
| 20260504200152 | 78 | 183 | 4.0 | 7.0 | 0.00 | 0.00 | 0.00 | 47 | 1054.3 |
| 20260504195648 | 78 | 172 | 5.0 | 6.0 | 0.00 | 0.00 | 0.00 | 47 | 1054.2 |
| 20260504195144 | 78 | 143 | 5.0 | 7.0 | 0.00 | 0.00 | 0.00 | 48 | 1054.3 |
| 20260504194641 | 78 | 188 | 9.0 | 10.0 | 0.00 | 0.00 | 0.00 | 47 | 1054.3 |
| 20260504194137 | 78 | 191 | 8.0 | 10.0 | 0.00 | 0.00 | 0.00 | 47 | 1054.4 |
| 20260504193633 | 78 | 185 | 8.0 | 10.0 | 0.00 | 0.00 | 0.00 | 48 | 1054.6 |
| 20260504193131 | 77 | 185 | 3.0 | 6.0 | 0.00 | 0.00 | 0.00 | 47 | 1054.6 |
| 20260504192629 | 78 | 155 | 8.0 | 11.0 | 0.00 | 0.00 | 0.00 | 48 | 1054.7 |
| 20260504192127 | 78 | 219 | 10.0 | 15.0 | 0.00 | 0.00 | 0.00 | 47 | 1054.8 |
| 20260504191625 | 78 | 192 | 12.0 | 16.0 | 0.00 | 0.00 | 0.00 | 48 | 1054.8 |
| 20260504191121 | 78 | 214 | 6.0 | 7.0 | 0.00 | 0.00 | 0.00 | 48 | 1054.8 |
| 20260504190617 | 77 | 203 | 12.0 | 15.0 | 0.00 | 0.00 | 0.00 | 49 | 1054.7 |
| 20260504190114 | 77 | 254 | 5.0 | 7.0 | 0.00 | 0.00 | 0.00 | 49 | 1054.8 |
| 20260504185610 | 77 | 193 | 3.0 | 6.0 | 0.00 | 0.00 | 0.00 | 49 | 1054.7 |
| 20260504185107 | 76 | 174 | 6.0 | 10.0 | 0.00 | 0.00 | 0.00 | 49 | 1054.9 |
| 20260504184603 | 76 | 184 | 6.0 | 9.0 | 0.00 | 0.00 | 0.00 | 50 | 1054.9 |
| 20260504184058 | 77 | 192 | 4.0 | 6.0 | 0.00 | 0.00 | 0.00 | 49 | 1054.9 |
| 20260504183555 | 77 | 199 | 5.0 | 6.0 | 0.00 | 0.00 | 0.00 | 50 | 1055.0 |
| 20260504183053 | 77 | 190 | 10.0 | 14.0 | 0.00 | 0.00 | 0.00 | 49 | 1055.0 |
| 20260504182550 | 77 | 219 | 3.0 | 5.0 | 0.00 | 0.00 | 0.00 | 50 | 1055.1 |
| 20260504182048 | 77 | 162 | 6.0 | 8.0 | 0.00 | 0.00 | 0.00 | 50 | 1055.2 |
| 20260504181545 | 77 | 180 | 9.0 | 14.0 | 0.00 | 0.00 | 0.00 | 49 | 1055.0 |
| 20260504181043 | 77 | 196 | 4.0 | 5.0 | 0.00 | 0.00 | 0.00 | 51 | 1055.3 |
| 20260504180541 | 77 | 257 | 2.0 | 2.0 | 0.00 | 0.00 | 0.00 | 50 | 1055.1 |
| 20260504180040 | 76 | 204 | 5.0 | 8.0 | 0.00 | 0.00 | 0.00 | 50 | 1055.4 |
| 20260504175537 | 76 | 232 | 5.0 | 7.0 | 0.00 | 0.00 | 0.00 | 49 | 1055.4 |
| 20260504175034 | 76 | 142 | 6.0 | 8.0 | 0.00 | 0.00 | 0.00 | 51 | 1055.3 |
| 20260504174532 | 76 | 189 | 8.0 | 11.0 | 0.00 | 0.00 | 0.00 | 48 | 1055.3 |
| 20260504174028 | 76 | 280 | 9.0 | 13.0 | 0.00 | 0.00 | 0.00 | 49 | 1055.5 |
| 20260504173525 | 76 | 176 | 11.0 | 14.0 | 0.00 | 0.00 | 0.00 | 50 | 1055.3 |
| 20260504173022 | 77 | 204 | 4.0 | 7.0 | 0.00 | 0.00 | 0.00 | 49 | 1055.3 |
| 20260504172518 | 76 | 192 | 5.0 | 7.0 | 0.00 | 0.00 | 0.00 | 48 | 1055.5 |
| 20260504172015 | 76 | 167 | 11.0 | 15.0 | 0.00 | 0.00 | 0.00 | 49 | 1055.5 |
| 20260504171512 | 76 | 285 | 2.0 | 3.0 | 0.00 | 0.00 | 0.00 | 49 | 1055.5 |
| 20260504171009 | 76 | 206 | 9.0 | 9.0 | 0.00 | 0.00 | 0.00 | 49 | 1055.6 |
| 20260504170504 | 76 | 180 | 6.0 | 8.0 | 0.00 | 0.00 | 0.00 | 50 | 1055.6 |
| 20260504160425 | 74 | 286 | 2.0 | 3.0 | 0.00 | 0.00 | 0.00 | 51 | 1056.1 |
| 20260504150849 | 71 | 181 | 8.0 | 13.0 | 0.00 | 0.00 | 0.00 | 51 | 1056.5 |
| 20260504150345 | 71 | 213 | 6.0 | 6.0 | 0.00 | 0.00 | 0.00 | 52 | 1056.7 |
| 20260504141315 | 68 | 166 | 3.0 | 5.0 | 0.00 | 0.00 | 0.00 | 56 | 1057.1 |
| 20260504140812 | 68 | 168 | 2.0 | 5.0 | 0.00 | 0.00 | 0.00 | 58 | 1057.3 |
| 20260504140308 | 68 | 182 | 3.0 | 3.0 | 0.00 | 0.00 | 0.00 | 58 | 1057.3 |
| 20260504130737 | 64 | 190 | 2.0 | 3.0 | 0.00 | 0.00 | 0.00 | 61 | 1057.7 |
| 20260504130232 | 64 | 171 | 1.0 | 1.0 | 0.00 | 0.00 | 0.00 | 62 | 1057.4 |